Theta_e
297 297 297 298 298 298 301 300 304 304 302 305 305 307 309 308 311 310 311 311 311 312 312 312 313 313 313 312 312 312 311 312 315 313 312 312 312 312 312 314 314 313 315 314
297 297 297 297 298 298 301 301 300 303 304 308 307 308 308 309 310 311 311 312 312 312 313 314 313 313 311 311 312 312 311 313 315 315 313 311 312 312 312 312 313 315 316 315
297 297 297 297 297 298 301 300 304 303 304 304 307 309 309 311 310 310 311 312 311 312 313 313 313 313 311 311 312 310 311 312 314 318 315 314 313 312 312 313 316 315 315 314
296 297 297 296 294 299 301 300 303 305 307 308 308 308 310 312 312 310 311 312 313 313 314 314 314 312 312 311 310 310 311 313 313 313 313 312 314 313 313 314 314 315 314 314
296 295 296 296 293 299 300 300 301 301 308 308 309 310 311 313 311 311 312 313 312 313 314 313 314 313 312 312 311 311 311 313 312 313 312 312 314 313 313 314 314 314 315 315
296 294 295 296 292 299 300 301 300 301 308 309 310 310 311 312 312 311 311 312 313 312 312 311 311 312 311 311 312 312 312 313 312 314 314 314 318 317 317 317 316 315 317 316
295 294 295 296 292 298 300 300 300 301 309 309 310 310 310 311 312 312 312 311 312 312 311 311 311 311 311 311 311 311 313 312 312 313 314 322 322 317 317 318 318 318 317 319
295 294 295 296 292 297 299 299 300 301 307 309 309 310 311 311 311 312 312 311 312 312 311 312 312 311 311 311 311 311 311 313 314 315 317 317 318 318 318 318 321 320 320 318
295 295 295 292 296 297 298 299 300 302 304 310 309 310 310 311 311 312 311 312 312 311 311 312 314 314 312 311 310 310 311 311 315 315 317 318 317 317 316 317 323 319 319 317
294 290 291 291 297 297 298 299 300 301 302 309 310 311 311 311 312 313 312 312 312 312 311 313 313 314 312 314 313 312 313 314 314 313 315 315 315 315 314 321 319 317 317 316
294 294 292 290 297 297 298 299 300 300 303 309 310 311 311 311 312 313 311 311 311 312 312 313 314 314 314 313 314 312 312 312 313 312 314 317 315 314 317 317 316 315 314 313
294 294 295 295 295 297 298 300 300 301 302 308 310 311 311 312 312 312 310 311 310 311 311 311 313 314 314 313 316 312 313 312 314 314 315 314 314 314 314 314 315 314 312 312
294 294 295 296 294 296 297 299 300 303 305 310 311 311 311 311 311 311 311 309 309 309 310 312 313 315 314 315 314 315 314 313 313 315 315 315 315 315 314 314 313 311 310 308
294 295 295 295 295 293 296 298 300 302 305 308 311 310 311 310 311 311 311 311 309 310 310 310 314 315 314 316 315 316 315 314 315 314 314 315 315 314 313 311 309 308 308 306
294 295 295 295 295 293 295 297 301 302 303 308 311 310 310 312 311 311 311 311 310 309 309 312 314 315 315 315 315 316 314 315 317 316 316 317 316 312 311 311 308 306 305 304
295 295 295 295 295 296 299 303 305 306 306 306 311 311 311 311 310 310 309 308 310 309 309 313 313 315 315 317 316 314 314 314 314 314 314 314 312 312 311 309 307 305 305 303
297 298 297 296 296 297 299 303 305 307 307 308 310 311 310 310 310 309 307 308 309 310 312 312 313 315 315 316 315 314 315 315 314 314 313 314 312 313 310 309 307 303 305 302
299 298 298 296 296 298 301 305 306 306 307 309 307 311 310 309 310 310 308 310 309 311 312 312 314 313 314 317 315 314 314 314 313 313 313 312 311 310 309 307 307 303 303 300
298 298 297 298 299 300 304 307 308 307 308 309 309 312 313 309 310 310 310 310 311 310 312 313 312 314 315 315 314 314 313 312 312 311 310 310 309 309 308 307 307 306 304 301
299 299 301 301 302 306 308 309 307 309 309 309 309 309 311 310 311 310 309 308 310 310 311 308 310 314 313 313 311 311 311 312 310 309 308 308 308 307 307 307 306 304 305 304
302 302 303 305 306 308 308 308 309 308 309 309 309 308 311 308 311 312 306 308 307 311 310 310 313 313 311 307 306 307 309 311 311 309 309 309 310 309 309 307 305 305 305 306
302 302 305 307 307 306 307 308 306 307 311 308 309 309 309 308 308 308 307 308 308 312 306 309 311 312 305 304 304 306 307 309 309 308 309 310 309 309 310 308 306 307 306 306
303 304 305 306 305 307 308 310 309 310 305 304 305 308 307 307 306 305 307 309 310 305 308 311 311 307 302 302 303 305 307 307 307 308 308 308 307 307 307 307 306 306 306 305
302 302 306 306 307 307 305 306 305 301 302 302 303 305 305 305 306 305 309 305 304 308 309 311 308 301 300 302 304 305 305 306 307 307 307 307 306 305 305 305 306 306 305 303
300 300 306 304 302 301 301 301 301 302 302 303 304 304 303 306 307 303 305 307 309 309 313 309 302 298 300 301 303 303 304 305 305 305 305 305 305 305 304 303 302 303 304 301
299 299 301 300 301 301 300 300 301 301 302 303 303 304 306 309 308 306 307 310 312 309 304 299 298 298 300 300 302 303 303 304 304 304 304 304 304 303 302 301 302 302 303 302
298 299 297 298 299 301 300 299 300 300 301 304 303 306 309 301 306 306 305 308 303 298 297 296 297 298 299 300 300 302 302 302 303 303 302 303 303 303 302 302 301 301 300 300
Wind_Speed
26 26 26 27 28 30 28 9 3 13 28 4 4 6 4 2 12 3 2 5 5 16 17 10 10 14 2 14 12 13 8 3 5 11 4 13 16 14 14 5 7 7 9 12
24 25 26 27 28 26 32 6 4 13 15 3 5 3 3 1 6 2 4 3 2 16 13 8 6 10 7 11 12 13 10 5 3 4 3 7 11 15 16 16 14 17 10 11
23 24 25 26 27 26 20 3 1 4 6 7 6 7 1 2 2 3 3 7 10 14 11 3 10 9 4 10 10 7 13 4 9 5 4 7 5 13 17 16 10 17 23 33
23 23 24 24 25 25 15 6 2 5 3 7 7 8 4 8 4 3 2 4 4 14 6 8 7 9 11 8 7 6 6 6 12 15 15 15 13 13 16 16 22 16 30 24
22 22 22 22 23 22 10 7 5 7 2 12 10 4 5 4 5 2 2 6 9 4 6 2 9 9 8 6 9 8 4 4 7 12 16 15 18 22 22 21 24 21 26 29
22 20 20 19 21 19 9 18 15 5 3 5 4 4 8 12 7 4 5 4 4 5 7 6 7 6 5 7 9 10 6 3 2 4 8 7 11 16 13 10 7 8 10 17
20 18 17 17 18 12 15 17 11 4 2 4 7 4 7 9 5 5 5 4 1 6 10 10 7 4 3 3 4 7 5 9 4 5 11 5 5 1 5 10 14 14 16 17
16 17 17 17 15 10 13 16 4 3 3 6 8 8 7 8 6 3 5 4 3 11 6 2 2 2 1 6 8 9 9 4 3 3 6 12 2 2 3 4 4 4 7 7
15 14 16 15 12 12 11 10 6 4 3 5 7 6 8 6 6 5 4 4 12 4 2 1 3 3 4 4 3 11 9 9 4 3 4 3 6 5 6 4 3 5 7 8
18 14 15 12 11 13 11 11 6 6 5 4 9 7 8 4 6 2 4 5 5 4 3 3 3 4 3 5 6 5 4 3 8 9 4 8 6 4 6 4 3 2 3 10
17 13 14 11 10 11 13 13 5 9 5 4 4 2 4 6 9 3 7 4 2 3 4 3 4 5 6 5 5 8 10 7 5 6 5 7 3 6 3 4 6 4 7 3
18 12 12 13 10 10 10 10 11 13 8 4 5 7 6 7 2 3 8 1 3 3 2 3 4 4 3 8 3 11 7 9 5 9 5 6 3 8 11 12 10 8 7 5
18 15 13 15 15 11 8 12 12 8 4 4 3 5 9 10 10 9 5 5 7 5 6 2 3 6 4 5 9 8 9 11 6 2 6 12 13 10 10 9 7 7 7 6
19 18 13 12 14 10 9 10 7 6 4 3 1 4 5 7 10 13 15 11 12 10 6 4 3 4 2 3 2 6 1 10 9 11 15 18 6 5 7 3 2 3 2 2
21 17 12 12 13 9 10 9 8 7 5 3 5 8 6 5 6 9 12 15 12 8 3 4 3 4 3 2 2 6 7 7 5 4 5 4 4 3 1 2 2 2 4 7
18 11 9 10 7 5 3 2 5 8 5 3 2 4 5 5 6 8 6 9 9 9 6 3 5 3 3 3 3 5 11 15 15 12 4 1 0 2 1 1 2 4 6 9
14 9 9 9 7 8 7 2 4 9 6 2 3 2 3 6 5 3 5 9 7 7 4 3 3 2 3 3 5 5 0 4 8 11 7 7 4 1 2 3 5 7 10 11
12 8 8 9 7 7 10 7 10 8 4 3 2 3 2 2 2 3 2 4 4 9 2 2 2 3 4 4 9 10 10 9 9 7 8 7 5 3 5 7 9 11 13 13
10 7 11 9 5 6 4 4 4 12 5 2 2 2 2 1 3 3 2 2 2 2 2 2 1 2 5 6 6 6 3 3 5 4 7 7 7 7 10 11 12 11 13 15
7 7 1 3 4 8 7 4 5 5 4 4 2 2 2 1 1 1 2 0 0 1 0 2 2 4 16 17 7 5 5 7 7 4 4 9 12 12 13 13 11 10 15 18
3 2 1 4 8 4 2 2 2 4 2 3 2 3 3 2 2 1 1 0 0 1 2 2 2 3 0 5 8 9 13 12 8 8 7 5 7 13 16 14 14 17 19 21
3 2 1 4 2 1 1 1 0 2 2 1 2 1 2 2 1 1 0 0 1 1 3 2 2 1 5 8 9 9 6 6 7 8 7 7 10 15 18 19 19 18 21 23
1 1 1 1 1 2 3 4 2 1 2 4 4 2 2 1 1 1 0 1 1 2 1 2 3 3 7 7 7 6 4 5 7 7 7 7 11 15 18 21 22 23 25 26
2 1 2 2 3 2 1 1 1 1 2 4 4 4 2 2 1 1 1 1 1 1 2 3 3 11 12 10 9 7 4 3 4 5 5 7 12 16 18 20 23 26 28 29
1 1 3 4 2 2 3 2 1 0 1 2 2 3 2 1 0 0 1 2 3 3 1 3 11 16 11 10 10 6 4 3 4 4 5 9 14 16 17 19 24 27 29 30
2 3 2 1 1 3 3 2 1 1 1 1 1 1 2 2 1 2 5 2 1 2 3 12 18 13 10 11 10 8 5 3 4 5 7 11 15 17 20 23 24 25 27 27
3 2 3 0 1 1 2 1 1 2 0 1 1 3 2 1 2 3 2 1 2 8 11 13 13 13 13 12 10 8 6 4 5 6 9 13 16 19 22 25 26 26 28 27
Wind_Direction
342 343 343 340 341 334 337 308 293 124 147 141 217 203 91 31 152 344 65 156 170 162 164 163 170 177 54 193 182 188 185 206 209 213 213 217 204 216 218 224 217 231 289 276
344 344 344 344 344 342 336 321 320 148 165 135 212 90 128 282 168 227 171 133 187 165 157 149 157 136 126 166 180 171 167 206 215 170 208 237 232 228 227 236 263 257 273 264
344 341 345 347 347 347 346 318 107 107 253 289 201 169 93 133 216 129 97 111 143 151 154 167 153 127 140 168 183 92 177 220 247 286 1 120 202 233 233 228 240 258 245 272
344 345 346 352 351 359 9 5 335 7 172 221 173 223 140 146 122 43 45 130 151 147 147 123 155 142 130 164 138 167 189 256 251 264 277 278 265 240 244 240 242 244 273 279
344 346 348 354 355 6 21 22 356 335 209 166 182 191 156 179 118 149 59 135 122 120 138 83 167 169 175 174 174 187 201 258 286 276 268 262 257 255 252 249 254 258 264 276
342 345 348 355 358 15 3 4 351 322 198 189 191 191 170 202 164 74 59 102 128 114 80 76 69 101 150 151 175 180 181 225 285 276 291 273 262 249 253 235 208 221 241 258
342 346 347 351 357 11 1 352 341 322 281 237 216 203 193 188 185 116 140 127 271 93 110 100 95 104 125 178 209 202 185 212 230 280 292 233 133 89 282 268 259 239 251 273
337 341 344 345 354 3 355 340 340 306 290 213 230 201 192 171 165 156 120 127 94 134 70 93 127 141 243 224 215 209 211 203 255 254 281 293 335 172 234 241 273 153 287 318
325 326 330 343 358 349 344 341 358 297 291 227 208 193 194 169 179 168 189 101 151 122 95 161 223 224 211 158 211 199 208 235 281 332 292 276 90 182 220 162 260 354 338 334
326 316 322 337 346 343 337 321 331 317 264 249 211 189 198 168 193 165 125 152 199 189 145 206 238 246 198 192 196 169 177 191 225 244 273 283 294 103 157 245 28 354 287 324
327 335 331 326 333 343 339 320 306 344 284 293 214 200 186 182 199 189 133 135 173 160 183 217 214 247 211 239 212 164 181 191 195 204 244 254 93 127 256 357 306 269 285 286
323 319 325 317 305 318 331 320 323 326 252 263 226 225 217 217 224 162 175 23 135 167 188 210 288 233 217 240 226 168 205 212 200 202 220 283 260 287 300 299 282 292 272 270
319 316 299 303 300 293 310 310 323 344 285 281 235 230 241 232 231 220 166 204 192 199 215 223 249 260 238 215 236 195 230 215 237 240 250 255 280 295 293 299 280 279 286 275
315 305 292 286 295 274 280 288 289 310 308 307 192 269 256 252 245 232 231 230 213 213 225 233 245 252 262 272 357 243 336 158 223 248 274 282 289 353 312 271 306 330 328 146
307 297 281 278 282 270 277 269 248 234 233 312 303 303 276 260 259 251 243 236 207 189 230 204 232 249 227 217 279 247 193 208 213 256 43 332 45 0 358 32 14 53 100 123
307 285 274 265 260 256 312 257 215 212 211 286 293 293 274 281 287 225 269 254 218 188 216 214 236 249 267 248 257 260 246 238 260 265 2 12 328 351 9 95 76 119 127 133
304 281 261 241 242 224 220 234 165 184 205 265 290 265 242 258 272 232 261 228 215 214 246 221 293 253 243 286 255 275 238 266 266 248 250 261 242 223 221 174 146 135 132 131
313 270 225 218 212 238 249 179 160 183 197 262 272 282 269 237 267 238 240 196 203 206 288 257 231 192 223 248 246 258 283 293 277 248 229 251 227 190 181 166 150 140 127 128
46 86 123 137 182 207 167 165 217 188 220 250 201 285 319 245 248 241 212 292 195 218 233 205 201 191 227 248 286 281 319 288 307 244 230 231 218 206 183 169 163 157 142 143
116 136 148 178 184 146 127 129 151 175 226 236 251 260 260 278 309 5 279 230 264 264 93 331 235 255 256 263 279 282 290 306 259 224 246 212 205 195 181 175 171 175 156 149
319 296 256 139 145 137 200 162 161 182 243 218 236 255 289 284 272 330 0 299 281 250 83 282 269 258 91 333 314 285 260 266 285 245 260 248 226 192 175 176 180 168 158 154
338 300 88 94 136 130 128 144 106 228 267 26 293 339 259 289 254 272 52 336 336 319 339 264 256 311 355 336 323 319 284 256 244 236 261 249 217 202 193 186 177 172 163 160
311 302 248 134 94 154 222 180 182 238 12 350 349 301 284 292 300 356 246 239 228 304 244 257 264 3 341 327 328 326 282 241 226 240 255 225 200 194 193 181 178 172 166 162
318 13 234 221 163 221 115 42 54 31 356 336 327 298 311 315 39 342 267 78 279 254 253 249 21 355 339 342 345 344 320 266 246 249 244 205 187 181 182 186 178 173 168 167
288 266 238 206 115 111 168 172 166 157 337 341 323 294 277 305 261 324 30 218 242 219 306 26 349 340 342 345 346 342 317 263 232 224 202 185 181 181 177 177 173 176 173 169
220 235 248 128 216 148 184 205 187 28 280 231 191 292 287 237 268 204 222 244 281 52 356 329 334 340 343 341 339 334 314 271 238 216 199 185 181 178 172 172 176 176 177 172
197 226 219 237 347 61 141 129 160 301 246 224 152 195 224 3 254 250 214 290 359 324 322 330 334 334 333 334 330 324 311 278 241 213 194 189 185 181 178 174 174 174 173 172